Weather Roundup
Issued by NWS Springfield, MO

Current Version | Previous Version | Text Only | Print | Product List | Glossary On
Versions: 1 2 3 4 5 6 7 8 9 10 11 12 13 14 15 16 17 18 19 20 21 22 23 24 25 26 27 28 29 30 31 32 33 34 35 36 37 38 39 40 41 42 43 44 45 46 47 48 49 50
901
NZUS99 KSGF 100707
HRRSGF

HOURLY WEATHER
NATIONAL WEATHER SERVICE SPRINGFIELD MO
100 AM CST WED FEB 10 2016

......SGF CWA......

CITY           SKY/WX    TMP DP  RH WIND       PRES   REMARKS
SPRINGFIELD    CLEAR     22   6  50 NW10      30.20F WCI  11
JOPLIN         CLEAR     21   7  54 W3        30.27F
WEST PLAINS    CLEAR     22   2  42 NW17G23   30.16S WCI   8
ROLLA          CLEAR     17   5  59 NW12      30.15R WCI   4
OSAGE BEACH    CLEAR     19   5  53 CALM      30.21S

......SURROUNDING SGF CWA......

CITY           SKY/WX    TMP DP  RH WIND       PRES   REMARKS
CHANUTE        PTCLDY    20   9  62 W5        30.27F WCI  13
PARSONS        CLEAR     18  11  74 CALM      30.29F
COFFEYVILLE    CLEAR     21   9  59 W3        30.30F
EMPORIA        CLEAR     18  10  71 SW5       30.24F WCI  11
GROVE OK       PTCLDY    27  12  54 CALM      30.30F
ROGERS AR      PTCLDY    23   7  50 NW7       30.25F WCI  15
SILOAM SPRINGS CLEAR     21   1  42 N3        30.26F
HARRISON AR    CLEAR     23   5  46 NW10G17   30.21F WCI  12
NEAR YELLVILLE CLEAR     27   3  36 NW10      30.21R WCI  17

......KANSAS AND MISSOURI......

CITY           SKY/WX    TMP DP  RH WIND       PRES   REMARKS
KANSAS CTY INT CLEAR     17  10  74 W6        30.23F WCI   9
DOWNTOWN KC    CLEAR     21  10  62 SW3       30.25F
COLUMBIA       MOCLDY    17   7  64 NW7       30.18F WCI   8
SEDALIA        CLEAR     20   9  62 NW6       30.23S WCI  12
ST JOSEPH      PTCLDY    19  10  68 CALM      30.24F
ST LOUIS       FLURRIES  19   7  59 NW17      30.14S WCI   4
SPIRIT OF STL  CLOUDY    18   6  59 NW15      30.16R WCI   4
KIRKSVILLE     CLEAR     15   6  67 NW10      30.18R WCI   2
WICHITA        CLOUDY    27  13  55 SE5       30.24F WCI  22
TOPEKA         MOCLDY    24  12  60 CALM      30.24F
OLATHE         CLEAR     18   8  65 CALM      30.24F

......TENNESSEE......

CITY           SKY/WX    TMP DP  RH WIND       PRES   REMARKS
MEMPHIS        CLEAR     29  12  49 NW10      30.18R WCI  20
NASHVILLE      LGT SNOW  21  16  81 CALM      30.09F

......ARKANSAS.......

CITY           SKY/WX    TMP DP  RH WIND       PRES   REMARKS
FAYETTEVILLE   CLEAR     22   7  52 N3        30.26F
FT SMITH       CLEAR     30   4  33 NW6       30.31S WCI  24
LITTLE ROCK    CLEAR     34  10  37 NW8       30.24S WCI  27

......OKLAHOMA.......

CITY           SKY/WX    TMP DP  RH WIND       PRES   REMARKS
TULSA          PTCLDY    28  11  48 NE6       30.32F WCI  22
PONCA CITY     PTCLDY    28  14  55 CALM      30.30S
MCALESTER      CLEAR     34  17  50 N7        30.31R WCI  28
OKLAHOMA CITY  CLEAR     30  20  66 W3        30.29F

......IOWA............

CITY           SKY/WX    TMP DP  RH WIND       PRES   REMARKS
DES MOINES     CLOUDY    16   7  67 N5        30.16F WCI   9
QUAD CITIES    CLEAR     11   1  64 NW15      30.10R WCI  -5

......ILLINOIS........

CITY           SKY/WX    TMP DP  RH WIND       PRES   REMARKS
QUINCY         CLEAR     13   4  67 NW14      30.14S WCI  -2
CHICAGO        MOCLDY    14   5  67 NW16      29.94S WCI  -2




USA.gov is the U.S. government's official web portal to all federal, state and local government web resources and services.